"Pseudo-MPEC" for p00043

Created 2025 May 12 0:31:05 UT using Find_Orb

Click here for an explanation of pseudo-MPECs

 
 Astrometry: 
     p00043 * C2025 04 23.54857615 42 37.095+08 53 29.09   ~4NKH 21.97wXNEOCPF51
     p00043   C2025 04 23.55996515 42 37.188+08 53 29.53   ~4NKH 21.7 wXNEOCPF51
     p00043   C2025 04 23.57132915 42 37.263+08 53 29.72   ~4NKH 21.88wXNEOCPF51

Station data:
(F51) Pan-STARRS 1, Haleakala  (N20.707234 W156.255910)  US/Hawaii.
   Observers J. Bulger, T. Lowe, A. Schultz, M. Willman. Measurers K.
   Chambers, S. Chastel, T. de Boer, L. Denneau, J. Fairlamb, H. Flewelling,
   M. Huber, C.-C. Lin, E. Magnier, Y. Ramanjooloo, R. Wainscoat, R. Weryk.
   1.8-m Ritchey-Chrétien + CCD.

Orbital elements:  p00043
   Perihelion 2025 Mar 8.14730 +/- 46.8 TT =  3:32:06 (JD 2460742.64730)
Epoch 2025 Apr 24.0 TT = JDT 2460789.5   Earth MOID: 0.2003   Ju: 0.5241
M   3.07750943 +/- 22               Sa: 0.3232                   AutoNEOCP
n   0.06568477 +/- 0.168            Peri.   11.05724 +/- 110
a   6.08358471 +/- 10.4             Node   163.93151 +/- 46
e   0.8040744 +/- 0.252             Incl.    9.65028 +/- 6
P  15.00512                H 21.96  G  0.15   U 11.5  SR
q 1.19192945 +/- 0.413    Q 10.9752399 +/- 75.2           (J2000 ecliptic)
From 3 observations 2025 Apr. 23 (32.8 min); mean residual 0".06
Residuals in arcseconds: 
250423 F51  .05-  .04-    250423 F51  .10+  .07+    250423 F51  .06-  .05-    

Ephemerides (geocentric):
Date (UTC) HH   RA             Dec           delta  r     elong  mag " sig PA
---- --------  ------------   ------------  ------ ------ -----  --- --------
2025 05 12 01  15 41 59.395   +07 40 18.70  .51563 1.4892 153.4 22.3  69d  86
2025 05 12 02  15 41 58.924   +07 39 59.06  .51595 1.4896 153.4 22.3  69d  86
2025 05 12 03  15 41 58.453   +07 39 39.38  .51627 1.4899 153.4 22.3  69d  86
2025 05 12 04  15 41 57.981   +07 39 19.68  .51659 1.4902 153.4 22.3  69d  86
2025 05 12 05  15 41 57.509   +07 38 59.93  .51691 1.4906 153.5 22.3  69d  86
2025 05 12 06  15 41 57.036   +07 38 40.15  .51723 1.4909 153.5 22.3  69d  86
2025 05 12 07  15 41 56.564   +07 38 20.34  .51754 1.4912 153.5 22.3  69d  86
2025 05 12 08  15 41 56.090   +07 38 00.49  .51786 1.4915 153.5 22.3  69d  86
2025 05 12 09  15 41 55.616   +07 37 40.60  .51818 1.4919 153.5 22.3  69d  86
2025 05 12 10  15 41 55.142   +07 37 20.68  .51850 1.4922 153.5 22.3  69d  86
2025 05 12 11  15 41 54.668   +07 37 00.73  .51882 1.4925 153.5 22.3  69d  86
2025 05 12 12  15 41 54.193   +07 36 40.74  .51915 1.4929 153.5 22.3  69d  86
2025 05 12 13  15 41 53.718   +07 36 20.71  .51947 1.4932 153.5 22.3  69d  86
2025 05 12 14  15 41 53.242   +07 36 00.66  .51979 1.4935 153.5 22.3  69d  86
2025 05 12 15  15 41 52.766   +07 35 40.56  .52011 1.4938 153.5 22.3  69d  86
2025 05 12 16  15 41 52.290   +07 35 20.43  .52043 1.4942 153.5 22.3  69d  86
2025 05 12 17  15 41 51.814   +07 35 00.27  .52075 1.4945 153.5 22.3  69d  86
2025 05 12 18  15 41 51.337   +07 34 40.07  .52107 1.4948 153.5 22.3  69d  86
2025 05 12 19  15 41 50.860   +07 34 19.84  .52140 1.4952 153.5 22.3  69d  86
2025 05 12 20  15 41 50.382   +07 33 59.58  .52172 1.4955 153.5 22.3  69d  86
2025 05 12 21  15 41 49.905   +07 33 39.28  .52204 1.4958 153.5 22.3  69d  86
2025 05 12 22  15 41 49.426   +07 33 18.94  .52236 1.4961 153.5 22.3  69d  86
2025 05 12 23  15 41 48.948   +07 32 58.57  .52269 1.4965 153.5 22.3  69d  86
2025 05 13 00  15 41 48.470   +07 32 38.17  .52301 1.4968 153.5 22.4  69d  86
2025 05 13 01  15 41 47.991   +07 32 17.73  .52333 1.4971 153.5 22.4  69d  86
2025 05 13 02  15 41 47.512   +07 31 57.26  .52366 1.4975 153.6 22.4  69d  86
2025 05 13 03  15 41 47.032   +07 31 36.76  .52398 1.4978 153.6 22.4  69d  86
2025 05 13 04  15 41 46.553   +07 31 16.22  .52431 1.4981 153.6 22.4  69d  86
2025 05 13 05  15 41 46.073   +07 30 55.65  .52463 1.4985 153.6 22.4  69d  86
2025 05 13 06  15 41 45.593   +07 30 35.04  .52495 1.4988 153.6 22.4  69d  86
2025 05 13 07  15 41 45.113   +07 30 14.40  .52528 1.4991 153.6 22.4  69d  86
2025 05 13 08  15 41 44.632   +07 29 53.72  .52561 1.4995 153.6 22.4  70d  85
2025 05 13 09  15 41 44.151   +07 29 33.02  .52593 1.4998 153.6 22.4  70d  85
2025 05 13 10  15 41 43.670   +07 29 12.28  .52626 1.5001 153.6 22.4  70d  85
2025 05 13 11  15 41 43.189   +07 28 51.50  .52658 1.5004 153.6 22.4  71d  85
2025 05 13 12  15 41 42.708   +07 28 30.69  .52691 1.5008 153.6 22.4  71d  85
2025 05 13 13  15 41 42.226   +07 28 09.85  .52724 1.5011 153.6 22.4  71d  85
2025 05 13 14  15 41 41.745   +07 27 48.98  .52756 1.5014 153.6 22.4  71d  85
2025 05 13 15  15 41 41.263   +07 27 28.07  .52789 1.5018 153.6 22.4  71d  85
2025 05 13 16  15 41 40.781   +07 27 07.13  .52822 1.5021 153.6 22.4  71d  85
2025 05 13 17  15 41 40.299   +07 26 46.15  .52854 1.5024 153.6 22.4  71d  85
2025 05 13 18  15 41 39.816   +07 26 25.14  .52887 1.5028 153.6 22.4  71d  85
2025 05 13 19  15 41 39.334   +07 26 04.10  .52920 1.5031 153.6 22.4  71d  85
2025 05 13 20  15 41 38.851   +07 25 43.03  .52953 1.5034 153.6 22.4  71d  86
2025 05 13 21  15 41 38.368   +07 25 21.92  .52986 1.5038 153.6 22.4  71d  86
2025 05 13 22  15 41 37.885   +07 25 00.78  .53018 1.5041 153.6 22.4  71d  86
2025 05 13 23  15 41 37.402   +07 24 39.61  .53051 1.5044 153.6 22.4  71d  86
2025 05 14 00  15 41 36.919   +07 24 18.40  .53084 1.5048 153.6 22.4  71d  86